sat.trackr.live / text

‹ back to catalog

STARLINK-5538

NORAD 56357 · 2023-058AS

PAYLOAD ACTIVE UNKNOWN

§ Identity

Operator
Country
US
Launch date
2023-04-27
Launch site
AFWTR
Launch vehicle
Mass (kg)
RCS (m²)

Purposes: comms

External: N2YO · Heavens-Above · Gunter

§ Orbital elements

Epoch: 2026-05-25T00:03:28.420128Z

Period
95.64 min
Inclination
97.4485°
Eccentricity
0.0002291
Mean motion
15.05658533 rev/d
Perigee alt
547.9 km
Apogee alt
551.1 km
Semi-major
6,927.6 km
B*
-9.8029e-5
RAAN
146.1373°
Arg perigee
99.7751°
Mean anomaly
260.3735°
Rev number
16,968

§ Raw data

STARLINK-55381 56357U 23058AS  26145.00241227 -.00001473  00000+0 -98029-4 0  99982 56357  97.4485 146.1373 0002291  99.7751 260.3735 15.05658533169689

JSON: /api/v1/satellites/56357 · /tle

For live sub-satellite position, see the globe view (requires WebGL).

§ Visibility from observer

Set your observer location to see the next 7 days of passes ≥ 10°. The values pass through the URL so the page stays shareable.

No JS? Fill the form by hand. The geolocation button needs JavaScript.